SCP
0 0 0 0 0 0 0 0 0 0 0 0 0 0 0 0 0 0 0 0 0 0 0 0 0 0 0 0 0 0 0 0 0 0 0 0 0 0 0 0 0 0 0 0
0 0 0 0 0 0 0 0 0 0 0 0 0 0 0 0 0 0 0 0 0 0 0 0 0 0 0 0 0 0 0 0 0 0 0 0 0 0 0 0 0 0 0 0
0 0 0 0 0 0 0 0 0 0 0 0 0 0 0 0 0 0 0 0 0 0 0 0 0 0 0 0 0 0 0 0 0 0 0 0 0 0 0 0 0 0 0 0
0 0 0 0 0 0 0 0 0 0 0 0 0 0 0 0 0 0 0 0 0 0 0 0 0 0 0 0 0 0 0 0 0 0 0 0 0 0 0 0 0 0 0 0
0 0 0 0 0 0 0 0 0 0 0 0 0 0 0 0 0 0 0 0 0 0 0 0 0 0 0 0 0 0 0 0 0 0 0 0 0 0 0 0 0 0 0 0
0 0 0 0 0 0 0 0 0 0 0 0 0 0 0 0 0 0 0 0 0 0 0 0 0 0 0 0 0 0 0 0 0 0 0 0 0 0 0 0 0 0 0 0
0 0 0 0 0 0 0 0 0 0 0 0 0 0 0 0 0 0 0 0 0 0 0 0 0 0 0 0 0 0 0 0 0 0 0 0 0 0 0 0 0 0 0 0
0 0 0 0 0 0 0 0 0 0 0 0 0 0 0 0 0 0 0 0 0 0 0 0 0 0 0 0 0 0 0 0 0 0 0 0 0 0 0 0 0 0 0 0
0 0 0 0 0 0 0 0 0 0 0 0 0 0 0 0 0 0 0 0 0 0 0 0 0 0 0 0 0 0 0 0 0 0 0 0 0 0 0 0 0 0 0 0
-0 -0 -0 0 0 0 0 0 0 0 0 0 0 0 0 0 0 0 0 0 0 0 0 0 0 0 0 0 0 0 0 0 0 0 0 0 0 0 0 0 0 0 0 0
-0 -0 -0 0 0 0 0 0 0 0 0 0 0 0 0 0 0 0 0 0 0 0 0 0 0 0 0 0 0 0 0 0 0 0 0 0 0 0 0 0 0 0 0 0
0 0 0 0 0 0 0 0 0 0 0 0 0 0 0 0 0 0 0 0 0 0 0 0 0 0 0 0 0 0 0 0 0 0 0 0 0 0 0 0 0 0 0 0
0 0 0 0 0 0 0 0 0 0 0 0 0 0 0 0 0 0 0 0 0 0 0 0 0 0 0 0 0 0 0 0 0 0 0 0 0 0 0 0 0 0 0 0
0 0 0 0 0 0 0 0 0 0 0 0 0 0 0 0 0 0 0 0 0 0 0 0 0 0 0 0 0 0 0 0 0 0 0 0 0 0 0 0 0 0 0 0
0 0 0 0 0 0 0 0 0 0 0 0 0 0 0 0 0 0 0 0 0 0 0 0 0 0 0 0 0 0 0 0 0 0 0 0 0 0 0 0 0 0 0 0
0 0 0 0 0 0 0 0 0 0 0 0 0 0 0 0 0 0 0 0 0 0 0 0 0 0 0 0 0 0 0 0 0 0 0 0 0 0 0 0 0 0 0 0
0 0 0 0 0 0 0 0 0 0 0 0 0 0 0 0 0 0 0 0 0 0 0 0 0 0 0 0 0 0 0 0 0 0 0 0 0 0 0 0 0 0 0 0
0 0 0 0 0 0 0 0 0 0 0 0 0 0 0 0 0 0 0 0 0 0 0 0 0 0 0 0 0 0 0 0 0 0 0 0 0 0 0 0 0 0 0 0
0 0 0 0 0 0 0 0 0 0 0 0 0 0 0 0 0 0 0 0 0 0 0 0 0 0 0 0 0 0 0 0 0 0 0 0 0 0 0 0 0 0 0 0
0 0 0 0 0 0 0 0 0 0 0 0 0 0 0 0 0 0 0 0 0 0 0 0 0 0 0 0 0 0 0 0 0 0 0 0 0 0 0 0 0 0 0 0
0 0 0 0 0 0 0 0 0 0 0 0 0 0 0 0 0 0 0 0 0 0 0 0 0 0 0 0 0 0 0 0 0 0 0 0 0 0 0 0 0 0 0 0
0 0 0 0 0 0 0 0 0 0 0 0 0 0 0 0 0 0 0 0 0 0 0 0 0 0 0 0 0 0 0 0 0 0 0 0 0 0 0 0 0 0 0 0
0 0 0 0 0 0 0 0 0 0 0 -0 -0 0 0 0 0 0 0 0 0 0 0 0 0 0 0 0 0 0 0 0 0 0 0 0 0 0 0 0 0 0 0 0
-0 0 0 0 0 0 0 0 0 0 -0 -0 -0 -0 0 0 0 0 0 0 0 0 0 0 0 0 0 0 0 0 0 0 0 0 0 0 0 0 0 0 0 0 0 0
-0 -0 0 0 0 0 0 0 0 0 -0 -0 -0 -0 -0 -0 -0 -0 -0 -0 -0 0 0 0 0 0 0 0 -0 0 0 0 0 0 0 0 0 0 0 0 0 0 0 0
-0 -0 -0 0 0 0 0 0 0 0 0 -0 -0 -0 0 0 -0 -0 -0 -0 -0 -0 0 0 0 0 0 0 0 0 0 0 0 0 0 0 0 0 0 0 0 0 0 0
Wind_Speed
1 2 3 6 7 6 4 3 4 5 4 3 4 5 6 5 4 6 7 7 8 9 7 6 7 8 7 7 7 7 7 6 5 3 3 2 2 1 1 1 2 3 3 4
3 4 9 6 5 5 3 2 3 4 3 3 3 4 4 5 7 9 10 9 10 7 5 6 6 6 7 8 7 7 8 7 6 4 3 3 3 1 1 1 1 2 3 4
6 7 6 4 4 3 3 4 4 3 2 2 1 4 3 3 3 4 6 7 8 10 10 8 7 6 7 8 8 8 8 7 6 5 3 3 3 2 1 1 0 1 3 3
4 6 3 3 3 3 3 4 3 2 1 2 1 2 6 3 2 4 5 5 6 7 8 8 7 7 7 8 7 7 8 7 6 6 6 6 4 3 3 2 2 1 2 3
4 3 2 3 4 3 5 3 2 2 2 1 1 1 7 2 2 4 4 5 6 7 8 8 8 8 6 6 7 6 7 6 6 6 7 6 4 3 2 1 2 2 2 2
4 3 2 3 3 2 1 3 4 4 4 1 4 3 5 3 5 3 3 3 5 6 6 6 5 5 4 4 5 5 6 5 5 6 6 6 6 5 4 3 3 2 1 1
4 4 2 1 2 4 4 5 4 4 3 4 3 2 5 4 2 3 4 3 3 4 6 6 5 5 5 5 5 6 7 5 5 5 5 5 6 6 6 5 4 3 2 2
1 5 3 1 3 3 1 6 5 3 3 4 2 2 4 2 1 1 2 3 3 3 4 5 6 6 5 5 5 5 6 5 5 5 5 4 5 4 3 4 4 4 3 4
2 5 4 3 2 4 2 1 5 5 1 1 3 3 3 3 3 3 3 3 3 2 3 3 4 5 5 5 5 6 7 5 5 5 4 4 4 4 4 4 3 3 3 3
4 2 4 3 2 1 3 4 4 4 1 2 3 2 3 3 2 2 2 1 1 1 1 2 3 4 5 5 5 5 6 6 5 4 4 4 3 4 4 3 3 3 3 2
3 2 4 3 1 3 1 2 3 3 4 4 2 5 3 4 3 1 1 1 1 1 1 1 1 2 3 3 4 4 4 4 4 4 3 3 3 3 3 3 3 3 3 3
2 4 2 5 5 3 4 3 5 4 2 3 3 6 3 1 1 1 0 1 1 1 1 1 1 2 2 2 3 3 4 4 4 4 3 3 3 3 3 3 3 3 3 3
3 5 2 5 6 4 1 1 2 3 4 3 4 5 3 3 3 2 1 0 1 1 1 1 1 1 1 2 2 2 3 3 3 3 3 3 2 3 3 3 3 3 3 3
5 4 5 6 6 3 3 3 1 4 3 3 5 5 3 2 2 2 2 1 0 1 1 1 1 1 2 2 2 2 2 2 3 3 3 3 3 3 3 3 3 4 4 4
4 2 3 5 5 3 3 4 3 3 6 6 6 5 5 3 2 1 0 1 2 2 2 1 0 1 1 1 2 2 2 1 2 2 3 3 3 3 2 2 3 3 4 4
3 2 0 3 3 2 2 3 3 4 3 4 3 4 4 3 1 1 1 1 1 1 1 1 1 1 1 2 2 1 1 2 2 2 2 2 2 2 2 3 2 3 3 3
1 3 1 3 5 2 4 4 3 3 3 5 6 6 2 1 2 3 2 2 1 1 1 1 1 2 3 3 3 3 2 2 2 1 1 2 2 2 2 2 2 2 3 3
5 4 3 1 2 4 6 2 3 3 2 2 3 3 4 4 3 3 2 2 2 1 1 1 2 2 2 2 2 2 2 2 2 1 1 1 2 2 1 1 2 3 2 3
6 6 3 2 2 5 5 2 2 3 2 1 2 1 1 2 3 2 1 1 2 2 2 2 2 1 1 1 2 2 2 2 2 2 2 2 2 2 2 2 3 3 2 2
4 5 5 3 3 6 6 3 0 4 2 2 2 3 2 3 1 4 3 1 1 1 0 1 1 1 1 1 1 2 2 1 2 3 3 2 2 3 3 4 3 2 3 3
2 2 4 4 4 7 5 3 2 3 5 2 2 3 3 3 4 4 2 1 1 0 1 0 1 0 1 1 1 1 1 2 3 2 2 2 2 3 3 3 3 2 2 2
5 4 4 4 4 8 3 2 4 5 2 2 1 2 3 2 1 0 1 1 1 1 1 0 0 1 1 1 1 0 2 3 2 1 1 2 3 3 2 2 2 2 3 3
4 6 5 6 6 4 2 4 3 3 3 2 2 1 2 2 1 0 0 1 1 1 1 1 0 1 2 2 0 1 3 2 1 1 1 2 2 2 2 2 3 2 2 3
3 1 3 1 3 2 1 1 1 2 3 3 3 3 3 2 2 1 1 1 1 2 1 1 1 1 2 2 1 1 2 1 1 1 2 1 1 2 2 2 2 3 3 3
4 1 2 2 3 1 2 2 2 1 2 2 1 2 2 3 2 1 1 1 2 1 2 1 1 1 2 2 2 2 2 0 0 1 2 1 1 2 2 2 2 3 4 5
4 6 6 7 7 5 5 4 3 3 2 2 2 1 1 2 3 2 2 1 1 1 1 1 1 1 2 2 2 2 2 1 0 1 1 1 1 2 2 2 3 4 4 5
Wind_Direction
336 84 230 228 208 207 213 212 243 252 240 197 213 225 232 218 182 180 186 188 191 200 199 181 172 165 157 156 154 152 148 151 140 129 129 125 129 137 117 132 124 126 129 128
25 254 239 233 232 225 220 231 258 285 259 189 213 243 235 204 195 189 187 191 195 196 186 185 175 163 165 167 165 161 159 160 159 158 158 154 147 149 139 124 116 132 134 140
201 242 245 228 235 236 241 209 222 239 327 346 35 326 302 246 205 195 195 193 191 190 187 185 181 175 173 174 175 171 171 167 165 156 126 97 75 61 59 65 167 170 154 152
236 252 245 236 242 205 240 231 207 207 114 278 166 272 289 256 227 208 209 203 195 193 184 183 181 180 181 184 182 173 170 168 165 154 148 150 154 167 195 194 194 189 170 160
255 240 237 242 242 201 216 228 219 206 164 338 328 175 283 278 235 238 223 211 199 193 182 179 179 181 178 174 173 170 164 165 163 159 159 158 163 177 177 169 174 186 190 176
251 256 209 222 246 207 146 42 30 48 72 324 253 181 272 250 228 227 222 204 188 176 168 169 167 160 157 153 154 155 157 164 166 163 163 166 172 170 164 178 184 195 201 207
322 316 314 55 28 1 63 75 27 2 11 262 266 186 252 273 259 187 175 178 166 159 159 160 157 160 161 160 159 157 156 162 168 166 171 180 180 175 179 186 191 192 197 209
322 294 282 244 177 199 203 137 156 199 226 276 321 237 262 300 332 94 128 134 114 128 149 167 172 171 170 169 166 161 159 163 171 175 180 179 172 175 185 189 189 195 201 209
180 265 280 266 222 152 134 164 170 145 207 269 288 296 318 358 28 56 71 93 126 141 160 168 174 172 169 168 172 171 165 165 174 179 173 171 175 178 183 185 184 191 202 207
165 257 292 297 31 48 150 152 89 107 144 270 288 265 250 276 310 4 34 90 163 149 133 152 182 182 177 174 174 168 162 168 175 176 178 178 186 189 185 173 180 192 202 198
139 156 306 352 201 227 91 91 107 121 152 160 251 271 253 198 208 195 217 167 170 149 130 151 179 185 178 167 166 170 165 163 168 177 181 176 181 188 179 177 185 187 185 183
135 126 244 269 274 223 158 169 139 148 214 177 185 261 306 181 182 156 187 194 155 137 132 127 156 160 153 162 173 177 174 176 183 184 170 173 179 174 175 187 192 180 179 184
115 108 65 338 337 357 58 178 149 139 140 168 183 254 331 20 14 8 50 83 147 133 77 73 91 140 184 178 170 174 182 189 188 177 167 166 171 178 193 198 198 188 181 185
106 117 162 196 228 250 278 277 207 135 162 202 212 234 301 342 350 351 11 8 104 126 134 95 131 174 198 193 189 181 194 192 184 174 170 180 194 198 203 200 195 198 194 191
92 138 211 231 240 228 246 263 237 196 196 193 217 219 241 235 218 218 30 33 47 45 35 356 303 196 200 205 205 197 204 190 173 168 179 200 209 199 191 196 204 204 203 207
78 138 294 294 285 285 284 277 241 225 211 193 189 242 241 228 193 88 86 93 83 58 24 328 316 279 219 209 205 197 203 192 154 163 198 198 191 187 194 204 207 205 212 216
128 126 108 276 302 334 272 247 220 209 204 188 212 228 207 173 173 188 181 170 180 208 332 328 303 255 243 231 200 192 202 175 147 161 188 174 170 183 202 198 192 208 212 210
156 137 142 234 345 241 247 252 177 161 245 222 195 194 186 186 197 196 184 174 192 231 268 286 293 289 253 231 223 194 167 151 160 174 183 194 190 202 212 189 201 213 204 203
163 148 142 152 219 268 280 258 171 162 267 294 161 147 124 95 49 347 308 189 200 228 247 256 271 277 275 217 195 161 160 163 168 188 205 210 205 211 207 210 221 218 205 207
107 120 133 152 196 236 243 270 273 101 269 288 158 149 146 97 86 266 283 293 286 286 282 297 326 8 11 304 129 143 180 197 214 219 224 221 209 215 216 220 222 218 205 210
115 119 159 180 216 255 259 285 73 157 236 241 170 154 153 170 209 234 250 276 278 298 323 7 57 49 319 315 121 149 197 233 242 234 222 226 223 226 226 225 224 216 210 204
183 178 189 166 200 248 258 111 164 209 203 158 150 148 154 173 190 190 189 273 336 350 4 60 34 315 317 341 102 148 253 253 254 248 232 238 242 242 244 229 232 222 205 200
196 194 185 185 210 236 200 177 189 160 152 163 156 165 147 140 158 221 265 303 321 340 327 284 247 320 326 324 116 204 273 282 268 251 258 262 260 258 247 230 227 222 214 211
274 148 128 202 254 248 223 162 147 146 159 170 162 161 155 161 177 196 228 274 311 319 314 324 355 347 326 316 307 261 277 291 300 277 265 273 284 293 290 265 231 215 213 219
236 160 143 228 252 291 280 245 208 168 136 123 127 157 167 161 175 187 211 258 266 295 306 332 337 307 304 320 323 316 319 358 312 289 292 290 276 270 284 282 253 231 225 216
214 185 183 219 214 194 228 233 196 165 179 178 172 207 195 174 194 190 207 241 243 265 308 331 311 306 308 332 332 323 316 312 231 272 285 280 279 271 268 277 295 287 272 266